Hourly Weather Roundup
Issued by NWS Central Illinois

Home | Current Version | Previous Version | Text Only | Print | Product List | Glossary On
Versions: 1 2 3 4 5 6 7 8 9 10 11 12 13 14 15 16 17 18 19 20 21 22 23 24 25 26 27 28 29 30 31 32 33 34 35 36 37 38 39 40 41 42 43 44 45 46 47 48 49 50
000
NZUS43 KILX 280110
HWRILX

AREA WEATHER ROUNDUP
NATIONAL WEATHER SERVICE, LINCOLN IL
700 PM CST TUE JAN 27 2015


CITY           SKY/WX    TMP DP  RH WIND       PRES   REMARKS
BLOOMINGTON    CLOUDY    30  26  85 E6        30.24S WCI  24
CHAMPAIGN      CLEAR     24  20  84 N5        30.24R WCI  18
DECATUR        CLOUDY    31  26  82 NE6       30.25R WCI  25
FLORA          MOCLDY    32  29  88 N3        30.25S
GALESBURG      CLOUDY    27  24  88 E5        30.23S WCI  22
JACKSONVILLE   CLOUDY    33  28  85 E8        30.23S WCI  25
LACON          CLOUDY    29  25  82 CALM      30.24S
LAWRENCEVILLE  CLOUDY    32  28  85 N6        30.25R WCI  26
LITCHFIELD     CLEAR     29  25  82 NE5       30.23S WCI  24
$$


CITY           SKY/WX    TMP DP  RH WIND       PRES   REMARKS
LINCOLN        CLOUDY    33  28  81 E5        30.26R WCI  28
MACOMB         CLOUDY    29  27  90 E6        30.26R WCI  23
MATTOON        PTCLDY    28  23  81 NE6       30.23R WCI  22
MT CARMEL AP   CLOUDY    34  30  86 N7        30.25R WCI  28
OLNEY-NOBLE AP MOCLDY    32  28  86 CALM      30.25S
PARIS          CLEAR     27  20  77 CALM      30.25R
PEORIA         CLOUDY    31  24  75 CALM      30.25R
PONTIAC        CLOUDY    31  26  82 CALM      30.25R
RANTOUL        CLEAR     28  23  82 CALM      30.24R
ROBINSON       CLOUDY    32  29  90 N5        30.26R WCI  27
SPRINGFIELD    CLOUDY    32  25  75 E5        30.25R WCI  27
TAYLORVILLE    CLOUDY    32  27  80 N3        30.25R
$$

...REGIONAL REPORTS...


CITY           SKY/WX    TMP DP  RH WIND       PRES   REMARKS
CHICAGO O`HARE PTCLDY    25  16  68 NE6       30.24R WCI  18
KANKAKEE       CLEAR     25  19  78 NE3       30.26R
MOLINE         CLOUDY    27  22  81 SE6       30.24S WCI  20
MOUNT VERNON   PTCLDY    32  25  74 N3        30.25R
PITTSFIELD     PTCLDY    31  28  86 E7        30.24R WCI  24
QUINCY         CLEAR     30  26  85 E9        30.21R WCI  22
ROCKFORD       MOCLDY    30  23  75 CALM      30.25S
$$


CITY           SKY/WX    TMP DP  RH WIND       PRES   REMARKS
BURLINGTON     CLOUDY    30  26  85 E6        30.22R WCI  24
CEDAR RAPIDS   CLOUDY    29  25  85 E9        30.19R WCI  20
DES MOINES     CLEAR     36  29  75 SE10      30.15S WCI  28
KIRKSVILLE     CLEAR     35  32  88 E9        30.17S WCI  28
OTTUMWA        CLEAR     31  27  85 E10       30.18S WCI  22
ST LOUIS       CLEAR     34  27  75 E9        30.23R WCI  27
$$


CITY           SKY/WX    TMP DP  RH WIND       PRES   REMARKS
TERRE HAUTE    CLEAR     26  21  81 N3        30.25R
EVANSVILLE     CLOUDY    34  29  82 N6        30.25R WCI  29
INDIANAPOLIS   CLEAR     22  12  65 N8        30.22R WCI  12
LAFAYETTE      CLEAR     21  15  78 CALM      30.24R
MADISON        CLOUDY    27  21  78 E3        30.21F
MILWAUKEE      MOCLDY    27  17  66 N3        30.25R
$$




USA.gov is the U.S. government's official web portal to all federal, state and local government web resources and services.